Flag for Poland Weather past 2 weeks in Poznan, Poland

Now
45 °F

Sunny.


Feels Like: 40 °F
Forecast: 43 / 72 °F
Wind: 8 mph from Southwest

Location: Poznan Airport


UV Index: 3 (Moderate)

Visibility: 10 mi


Pressure: 29.77 "Hg

Humidity: 61%

Dew point: 32 °F

Location of PoznanLocation

Historic Weather in Poznan

°F

Poznan temperature yesterday

Maximum temperature yesterday: 55 °F (at 4:00 PM)
Minimum temperature yesterday: 30 °F (at 3:00 AM)
Average temperature yesterday: 44 °F

Past Weeks' High & Low Weather Summary

 TemperatureHumidityPressure
High72 °F (Apr 8, 1:00 PM)100% (Apr 11, 7:00 AM)30.39 "Hg (Apr 11, 7:00 AM)
Low30 °F (Apr 17, 3:00 AM)31% (Apr 17, 5:00 PM)29.62 "Hg (Apr 14, 12:00 PM)
Average48 °F69%29.98 "Hg
* Reported Apr 3 7:00 AM — Apr 18 7:30 AM, Poznan, Weather by CustomWeather, © 2014

Note: Actual official high and low records may vary slightly from our data, if they occured in-between our weather recording intervals... More about our weather records

Advertising

Historic Weather Conditions — Data for Previous 24 hours

 ConditionsComfort  
Time TempWeatherWind HumidityBarometerVisibility
7:30 AM
Apr 18
43 °FSunny.6 mph66%29.77 "Hg10 mi
7:00 AM43 °FSunny.5 mph66%29.77 "Hg10 mi
6:30 AM43 °FClear.6 mph66%29.77 "Hg10 mi
6:00 AM43 °FClear.7 mph66%29.77 "Hg10 mi
5:30 AM43 °FClear.7 mph66%29.77 "Hg10 mi
5:00 AM45 °FClear.7 mph61%29.80 "Hg10 mi
4:30 AM45 °FClear.7 mph61%29.80 "Hg10 mi
4:00 AM45 °FClear.6 mph61%29.83 "Hg10 mi
3:30 AM45 °FClear.6 mph61%29.83 "Hg10 mi
3:00 AM45 °FClear.7 mph61%29.83 "Hg10 mi
2:30 AM45 °FClear.6 mph61%29.86 "Hg10 mi
2:00 AM45 °FClear.7 mph61%29.86 "Hg10 mi
1:30 AM45 °FClear.8 mph61%29.89 "Hg10 mi
1:00 AM45 °FClear.8 mph61%29.89 "Hg10 mi
12:30 AM45 °FClear.8 mph61%29.92 "Hg10 mi
12:00 AM45 °FClear.7 mph61%29.92 "Hg10 mi
11:30 PM
Apr 17
45 °FClear.6 mph57%29.95 "Hg10 mi
11:00 PM45 °FClear.6 mph53%29.98 "Hg10 mi
10:30 PM46 °FClear.6 mph50%29.98 "Hg10 mi
10:00 PM48 °FClear.6 mph43%29.98 "Hg10 mi
9:30 PM48 °FClear.5 mph43%30.01 "Hg10 mi
9:00 PM48 °FClear.5 mph46%30.01 "Hg10 mi
8:30 PM50 °FSunny.5 mph43%30.04 "Hg10 mi
8:00 PM50 °FPassing clouds.6 mph40%30.04 "HgN/A
7:00 PM52 °FPassing clouds.9 mph41%30.07 "HgN/A
6:30 PM54 °FPassing clouds.10 mph35%30.07 "HgN/A
6:00 PM54 °FPassing clouds.9 mph35%30.09 "HgN/A
5:30 PM54 °FPassing clouds.8 mph35%30.09 "HgN/A
5:00 PM55 °FPassing clouds.8 mph31%30.12 "HgN/A
4:30 PM54 °FPassing clouds.9 mph35%30.12 "HgN/A
4:00 PM55 °FPassing clouds.8 mph33%30.15 "HgN/A
3:30 PM54 °FPassing clouds.5 mph35%30.18 "HgN/A
3:00 PM54 °FSunny.7 mph35%30.18 "Hg10 mi
2:30 PM54 °FSunny.7 mph38%30.21 "Hg10 mi
2:00 PM54 °FPassing clouds.8 mph38%30.24 "HgN/A
1:30 PM54 °FPassing clouds.5 mph38%30.24 "HgN/A
1:00 PM52 °FSunny.5 mph41%30.27 "Hg10 mi
12:30 PM52 °FSunny.6 mph44%30.27 "Hg10 mi
12:00 PM52 °FPassing clouds.6 mph41%30.27 "HgN/A
11:30 AM52 °FPassing clouds.8 mph41%30.30 "HgN/A
11:00 AM52 °FPassing clouds.7 mph44%30.33 "HgN/A
10:30 AM50 °FPassing clouds.7 mph47%30.33 "HgN/A
10:00 AM48 °FPassing clouds.8 mph50%30.33 "HgN/A
9:30 AM48 °FPassing clouds.7 mph46%30.36 "HgN/A
9:00 AM46 °FSunny.9 mph46%30.36 "Hg10 mi
8:30 AM45 °FSunny.7 mph53%30.36 "Hg10 mi
8:00 AM43 °FSunny.3 mph61%30.33 "Hg10 mi
Weather by CustomWeather, © 2014

See weather overview